Location: Luna
(33.8188°N, 108.9564°W)
Time: 18:38:05
(UTC+00:00)

BEESAT - Visible Passes

Search period start: 28 March 2023 00:00
Search period end: 07 April 2023 00:00
Orbit: 698 x 704 km, 98.5° (Epoch: 28 March)

Date Brightness Start Highest point End Pass type
(mag) Time Alt. Az. Time Alt. Az. Time Alt. Az.
31 Mar ? 04:36:58 10° N 04:36:58 10° N 04:36:58 10° N visible
02 Apr ? 04:24:02 10° NNE 04:24:14 11° NNE 04:24:14 11° NNE visible
03 Apr ? 05:06:57 10° N 05:07:17 12° NNW 05:07:17 12° NNW visible
04 Apr ? 04:11:10 10° NNE 04:11:28 12° NNE 04:11:28 12° NNE visible
05 Apr ? 04:53:46 10° N 04:54:31 14° N 04:54:31 14° N visible
06 Apr ? 03:58:23 10° NNE 03:58:41 12° NNE 03:58:41 12° NNE visible
